GLOBALSTAR M001 1 25162U 98008A 26070.88109882 -.00000059 00000+0 28490-3 0 9990 2 25162 52.0022 274.0686 0002351 97.1467 7.1668 12.38229636276877 GLOBALSTAR M004 1 25163U 98008B 26070.87450810 -.00000070 00000+0 18522-3 0 9998 2 25163 52.0022 317.4918 0003328 150.9718 289.5936 12.63416582295523 GLOBALSTAR M002 1 25164U 98008C 26070.97515469 -.00000071 00000+0 98500-4 0 9998 2 25164 52.0016 288.7699 0000495 287.6649 72.4117 11.61515270215181 GLOBALSTAR M003 1 25165U 98008D 26070.66573184 -.00000193 00000+0 -11041-2 0 9992 2 25165 51.9851 147.6602 0008687 110.3952 55.8770 12.12023945265651 GLOBALSTAR M014 1 25306U 98023A 26071.29464705 -.00000064 00000+0 24750-3 0 9992 2 25306 51.9825 205.5499 0001792 124.9669 244.1597 11.65485056222434 GLOBALSTAR M006 1 25307U 98023B 26071.30543060 -.00000050 00000+0 53399-3 0 9993 2 25307 51.9925 268.0219 0002389 222.6179 308.1824 11.58177900247894 GLOBALSTAR M015 1 25308U 98023C 26071.10160659 -.00000052 00000+0 49925-3 0 9993 2 25308 51.9857 19.2767 0012509 192.1071 181.0422 11.48860961224870 GLOBALSTAR M008 1 25309U 98023D 26070.49535993 -.00000101 00000+0 -41703-4 0 9995 2 25309 51.9960 143.0502 0002538 29.8011 72.7427 12.36081433270903 GLOBALSTAR M023 1 25621U 99004A 26070.87232871 -.00000067 00000+0 20505-3 0 9999 2 25621 52.0125 318.3260 0009929 2.5828 77.6269 12.62518654249541 GLOBALSTAR M040 1 25622U 99004B 26071.03681308 -.00000075 00000+0 16096-3 0 9991 2 25622 51.9941 322.3732 0000144 282.7290 186.9100 12.62029653249072 GLOBALSTAR M036 1 25623U 99004C 26071.27419759 -.00000035 00000+0 70094-3 0 9991 2 25623 51.9949 253.6866 0010235 201.3338 329.6038 11.86620846210808 GLOBALSTAR M038 1 25624U 99004D 26071.10529406 -.00000079 00000+0 13222-3 0 9993 2 25624 52.0006 19.9853 0001333 254.4541 118.8479 12.32542062235414 GLOBALSTAR M022 1 25649U 99012A 26070.99721199 -.00000029 00000+0 69914-3 0 9992 2 25649 52.0034 282.8667 0002538 359.4908 154.2671 12.02510913208591 GLOBALSTAR M041 1 25650U 99012B 26071.25492237 -.00000109 00000+0 -30601-3 0 9993 2 25650 52.0013 171.7871 0001996 128.6067 231.4948 11.96684020210379 GLOBALSTAR M046 1 25651U 99012C 26071.14485836 -.00000111 00000+0 -25084-3 0 9991 2 25651 52.0037 222.8154 0002596 77.9970 93.3344 12.09418858216082 GLOBALSTAR M037 1 25652U 99012D 26071.25869757 -.00000094 00000+0 52212-4 0 9995 2 25652 51.9995 87.6631 0002153 65.6830 15.4913 12.62462495245139 GLOBALSTAR M045 1 25676U 99019A 26071.03209713 -.00000052 00000+0 36679-3 0 9996 2 25676 51.9953 261.8471 0001057 83.1763 58.0192 12.27074626226271 GLOBALSTAR M019 1 25677U 99019B 26071.19754360 -.00000205 00000+0 -12025-2 0 9996 2 25677 51.9889 50.5997 0001493 132.3919 240.9116 12.13885470217696 GLOBALSTAR M044 1 25678U 99019C 26071.07353767 -.00000073 00000+0 14470-3 0 9999 2 25678 51.9992 35.8154 0006015 193.9409 246.2283 11.90262750203227 GLOBALSTAR M042 1 25679U 99019D 26071.26964871 -.00000084 00000+0 76109-4 0 9995 2 25679 52.0046 14.1390 0003055 123.7564 27.8820 12.22094485218035 GLOBALSTAR M025 1 25770U 99031A 26071.26884694 -.00000049 00000+0 57084-3 0 9996 2 25770 51.9795 258.2403 0001730 198.6598 331.7539 11.22560796511816 GLOBALSTAR M049 1 25771U 99031B 26070.92568763 -.00000025 00000+0 13912-2 0 9990 2 25771 51.9890 307.2541 0003398 103.3639 256.7537 11.12121838147214 GLOBALSTAR M047 1 25772U 99031C 26070.89751093 -.00000047 00000+0 63619-3 0 9991 2 25772 51.9819 278.7102 0016458 6.1736 353.9270 11.31932720501422 GLOBALSTAR M052 1 25773U 99031D 26071.25144752 -.00000103 00000+0 -12442-2 0 9992 2 25773 51.9879 51.4133 0002431 256.0319 115.7388 11.15064106508414 GLOBALSTAR M035 1 25851U 99037A 26071.25689923 -.00000058 00000+0 22971-3 0 9996 2 25851 51.9945 177.1399 0013851 59.9975 311.9154 11.04541182125880 GLOBALSTAR M032 1 25852U 99037B 26071.03353668 -.00000028 00000+0 12420-2 0 9991 2 25852 52.0000 344.3602 0012235 258.6304 101.3121 11.19068960164779 GLOBALSTAR M051 1 25853U 99037C 26071.28121890 -.00000078 00000+0 -14289-3 0 9991 2 25853 51.9777 114.1473 0000585 141.8989 218.1863 11.42200551163022 GLOBALSTAR M030 1 25854U 99037D 26071.25398040 -.00000056 00000+0 39973-3 0 9994 2 25854 51.9861 263.2715 0004100 144.9066 215.2021 11.55104087181024 GLOBALSTAR M048 1 25872U 99041A 26071.27761665 -.00000072 00000+0 -46259-4 0 9993 2 25872 51.9375 59.5492 0013217 289.2174 83.7227 11.33862639155391 GLOBALSTAR M026 1 25873U 99041B 26070.92800834 -.00000038 00000+0 94788-3 0 9997 2 25873 52.0010 293.0130 0002136 14.7773 86.0426 11.06843138178135 GLOBALSTAR M043 1 25874U 99041C 26071.33694113 -.00000067 00000+0 46720-4 0 9991 2 25874 51.9397 177.7380 0013501 52.1780 340.8875 11.25697985153072 GLOBALSTAR M028 1 25875U 99041D 26071.29695789 -.00000083 00000+0 10629-3 0 9993 2 25875 51.9614 113.5982 0063046 293.6578 65.7674 12.50597510223729 GLOBALSTAR M024 1 25883U 99043A 26071.23890265 -.00000057 00000+0 26796-3 0 9997 2 25883 52.0012 135.8017 0002064 167.2535 232.9898 11.10172723144638 GLOBALSTAR M027 1 25884U 99043B 26071.14121789 -.00000022 00000+0 15852-2 0 9998 2 25884 52.0186 221.5949 0021886 65.7696 294.5381 11.04373976170840 GLOBALSTAR M054 1 25885U 99043C 26070.90319870 -.00000061 00000+0 26165-3 0 9995 2 25885 52.0150 304.4982 0004008 282.7111 89.8704 11.39224849149561 GLOBALSTAR M053 1 25886U 99043D 26070.96952953 -.00000046 00000+0 64528-3 0 9995 2 25886 51.9964 266.2915 0003714 160.8769 350.8745 11.27671038149651 GLOBALSTAR M058 1 25907U 99049A 26071.28960521 -.00000077 00000+0 97790-4 0 9993 2 25907 51.9922 113.2627 0002285 77.2018 282.9072 11.93208465573540 GLOBALSTAR M050 1 25908U 99049B 26071.26234987 -.00000157 00000+0 -77239-3 0 9997 2 25908 51.9977 100.9822 0009187 204.3979 236.3114 12.07465956180571 GLOBALSTAR M033 1 25909U 99049C 26070.94737964 -.00000124 00000+0 -31041-3 0 9990 2 25909 51.9929 315.1894 0015149 94.2540 266.0038 12.20303729568437 GLOBALSTAR M055 1 25910U 99049D 26070.97782054 -.00000066 00000+0 23812-3 0 9996 2 25910 52.0033 312.8096 0006733 334.8133 25.2390 12.29441724201229 GLOBALSTAR M057 1 25943U 99058A 26070.94473162 -.00000050 00000+0 39259-3 0 9991 2 25943 51.9996 308.3038 0002066 188.9674 171.1139 12.24835370199744 GLOBALSTAR M059 1 25944U 99058B 26071.29407439 -.00000109 00000+0 -28140-3 0 9998 2 25944 52.0010 201.8462 0001192 129.5583 242.2632 11.99994481606236 GLOBALSTAR M056 1 25945U 99058C 26071.30612694 -.00000005 00000+0 96206-3 0 9994 2 25945 51.9958 196.9027 0000996 42.2056 336.5421 12.04786337194943 GLOBALSTAR M031 1 25946U 99058D 26071.29692120 -.00000104 00000+0 -13456-3 0 9992 2 25946 51.9963 73.1924 0001321 14.8873 87.4399 12.16050897197168 GLOBALSTAR M039 1 25961U 99062A 26071.26735900 -.00000097 00000+0 39461-4 0 9990 2 25961 51.9839 172.1819 0002575 206.3674 153.7062 12.62343015214071 GLOBALSTAR M034 1 25962U 99062B 26071.27854693 -.00000079 00000+0 25374-4 0 9991 2 25962 51.9899 34.4955 0013996 187.1544 315.2422 11.79455975170027 GLOBALSTAR M029 1 25963U 99062C 26071.32210641 -.00000079 00000+0 83723-4 0 9999 2 25963 51.9794 89.5763 0002289 279.6146 93.7461 11.99909026201319 GLOBALSTAR M061 1 25964U 99062D 26070.60406119 -.00000103 00000+0 -36690-3 0 9996 2 25964 51.9775 223.8377 0006878 108.4419 333.1095 11.76778098152668 GLOBALSTAR M063 1 26081U 00008A 26071.29885988 -.00000088 00000+0 -80540-4 0 9996 2 26081 51.9941 125.4543 0004997 110.4184 327.3202 11.86181375189390 GLOBALSTAR M062 1 26082U 00008B 26071.29819017 -.00000040 00000+0 41788-3 0 9994 2 26082 51.9874 27.3339 0007334 328.3951 197.3940 12.43481659529977 GLOBALSTAR M060 1 26083U 00008C 26071.25830030 -.00000154 00000+0 -62317-3 0 9997 2 26083 52.0048 25.3878 0003087 317.8136 189.8867 12.17674946185020 GLOBALSTAR M064 1 26084U 00008D 26070.91554470 -.00000058 00000+0 35920-3 0 9993 2 26084 52.0017 222.1363 0001569 177.2223 182.8619 11.88542830198936 GLOBALSTAR M065 1 31571U 07020A 26071.32114351 -.00000111 00000+0 -41491-4 0 9999 2 31571 51.9881 130.1405 0010111 179.9831 258.4200 12.62021072867260 GLOBALSTAR M069 1 31573U 07020C 26071.28669265 -.00000097 00000+0 -39739-4 0 9990 2 31573 52.0027 166.3924 0001112 307.9657 59.4295 12.23468809866940 GLOBALSTAR M072 1 31574U 07020D 26071.27997435 -.00000072 00000+0 16150-3 0 9996 2 31574 51.9968 358.2397 0001483 106.1465 62.3125 11.91655998863422 GLOBALSTAR M071 1 31576U 07020F 26071.32734791 -.00000010 00000+0 79919-3 0 9992 2 31576 52.0054 199.4530 0000125 202.9021 173.4503 12.18266606527628 GLOBALSTAR M067 1 32263U 07048A 26071.05250274 -.00000075 00000+0 16287-3 0 9995 2 32263 51.9754 332.1265 0000968 155.2748 310.3974 12.40685161842731 GLOBALSTAR M070 1 32264U 07048B 26071.25687823 -.00000090 00000+0 76444-4 0 9991 2 32264 51.9771 31.8413 0000607 58.3282 81.0552 12.62331481847528 GLOBALSTAR M066 1 32265U 07048C 26070.98713487 -.00000088 00000+0 53630-4 0 9996 2 32265 51.9618 336.9485 0004357 190.8791 182.1965 12.30386772848261 GLOBALSTAR M068 1 32266U 07048D 26071.29944867 -.00000079 00000+0 13663-3 0 9991 2 32266 51.9877 204.9464 0001150 51.4235 339.1418 12.62842222851435 GLOBALSTAR M079 1 37188U 10054A 26071.31202800 -.00000099 00000+0 28208-4 0 9991 2 37188 52.0055 43.5699 0000539 109.1972 33.8767 12.62263904710319 GLOBALSTAR M074 1 37189U 10054B 26071.33947683 -.00000103 00000+0 37084-5 0 9998 2 37189 52.0029 42.7676 0000249 80.7135 66.4981 12.62266345710929 GLOBALSTAR M076 1 37190U 10054C 26071.17813821 -.00000096 00000+0 43831-4 0 9995 2 37190 52.0044 43.4532 0000336 131.0921 242.7609 12.62270547710629 GLOBALSTAR M077 1 37191U 10054D 26071.32721304 -.00000096 00000+0 -31863-3 0 9999 2 37191 51.9989 65.2279 0000872 147.8326 348.6056 11.68156455709823 GLOBALSTAR M075 1 37192U 10054E 26071.20541551 -.00000107 00000+0 -15596-4 0 9990 2 37192 51.9937 85.4794 0000361 98.6000 339.4423 12.62265001709692 GLOBALSTAR M073 1 37193U 10054F 26071.13280675 -.00000093 00000+0 57565-4 0 9995 2 37193 52.0092 359.7269 0000583 96.7722 10.1640 12.62269827711672 GLOBALSTAR M083 1 37739U 11033A 26070.98696729 -.00000086 00000+0 10191-3 0 9997 2 37739 51.9868 308.5353 0000832 96.7144 8.7705 12.62267678680670 GLOBALSTAR M088 1 37740U 11033B 26070.55888015 -.00000085 00000+0 10514-3 0 9991 2 37740 52.0203 216.0273 0000765 102.9291 334.9889 12.62262279676167 GLOBALSTAR M091 1 37741U 11033C 26071.27147475 -.00000101 00000+0 17414-4 0 9996 2 37741 51.9991 176.9678 0000813 106.3615 271.6298 12.62270368677042 GLOBALSTAR M085 1 37742U 11033D 26070.57780582 -.00000099 00000+0 26434-4 0 9999 2 37742 52.0115 130.2866 0000724 110.2611 54.3463 12.62269727677469 GLOBALSTAR M081 1 37743U 11033E 26070.60414457 -.00000093 00000+0 62206-4 0 9990 2 37743 51.9950 132.7538 0000590 128.1441 36.1477 12.62262934677611 GLOBALSTAR M089 1 37744U 11033F 26071.32314534 -.00000093 00000+0 60030-4 0 9999 2 37744 51.9920 84.7407 0000112 166.3894 206.8071 12.62264832678555 GLOBALSTAR M084 1 38040U 11080A 26070.96556692 -.00000086 00000+0 98957-4 0 9994 2 38040 52.0023 313.2626 0000461 86.5417 40.8235 12.62265522656488 GLOBALSTAR M080 1 38041U 11080B 26070.99141618 -.00000085 00000+0 10755-3 0 9994 2 38041 52.0075 314.8695 0001141 70.1366 304.2431 12.62267185656614 GLOBALSTAR M082 1 38042U 11080C 26070.95795922 -.00000076 00000+0 15531-3 0 9991 2 38042 52.0066 270.4611 0001150 82.9425 69.2844 12.62268354657310 GLOBALSTAR M092 1 38043U 11080D 26071.05933822 -.00000087 00000+0 92124-4 0 9993 2 38043 52.0115 0.5409 0000510 74.4421 298.6221 12.62264499655786 GLOBALSTAR M090 1 38044U 11080E 26070.79560181 -.00000078 00000+0 14108-3 0 9993 2 38044 52.0108 264.8796 0000948 96.9116 276.1656 12.62271959657412 GLOBALSTAR M086 1 38045U 11080F 26071.24994520 -.00000066 00000+0 21225-3 0 9998 2 38045 51.9888 263.5847 0001169 155.2420 18.2961 12.62283995657419 GLOBALSTAR M097 1 39072U 13005A 26071.31993260 -.00000103 00000+0 35315-5 0 9995 2 39072 52.0043 178.2043 0000832 117.4707 242.6245 12.62265678604675 GLOBALSTAR M093 1 39073U 13005B 26070.97706240 -.00000099 00000+0 25653-4 0 9994 2 39073 52.0104 172.5604 0000996 123.8046 236.2916 12.62273401604589 GLOBALSTAR M094 1 39074U 13005C 26071.21481015 -.00000106 00000+0 -97909-5 0 9997 2 39074 51.9949 86.0508 0000555 117.4766 242.6157 12.62267201606228 GLOBALSTAR M096 1 39075U 13005D 26071.30716661 -.00000100 00000+0 20001-4 0 9997 2 39075 52.0063 134.4952 0000713 116.2456 243.8484 12.62263711605157 GLOBALSTAR M078 1 39076U 13005E 26071.12211564 -.00000089 00000+0 82544-4 0 9996 2 39076 51.9863 219.2006 0001501 75.7463 284.3570 12.62276055603754 GLOBALSTAR M095 1 39077U 13005F 26071.06955277 -.00000094 00000+0 56946-4 0 9999 2 39077 52.0069 216.8278 0001285 99.4269 260.6743 12.62276255603600 GLOBALSTAR M087 1 52888U 22064A 26071.24131944 -.00000088 00000+0 89269-4 0 9993 2 52888 52.0028 357.6009 0000770 87.1303 272.9652 12.62267010178899